Location: Providence
(33.2334°N, 96.9616°W)
Time: 05:15:00
(UTC+00:00)

Daily predictions for brighter satellites

Satellite Brightness Start Highest point End
(mag) Time Altitude Azimuth Time Altitude Azimuth Time Altitude Azimuth
Cosmos 2056 Rocket 3.6 01:57:41 10° S 02:02:42 54° ESE 02:07:48 10° NNE
Cosmos 2297 Rocket 3.5 01:59:56 10° NW 02:05:12 41° WSW 02:10:28 10° S
KM-V1 4.3 02:04:15 10° SW 02:06:23 30° SSE 02:09:33 10° E
Lacrosse 5 4.1 02:05:48 10° N 02:08:04 13° NNE 02:10:20 10° ENE
Cosmos 2227 Rocket 3.0 02:03:26 10° NNW 02:08:55 53° WSW 02:14:23 10° S
Cosmos 1782 Rocket 4.4 02:08:01 10° NNW 02:12:14 53° W 02:16:27 10° S
Cosmos 407 Rocket 4.0 02:08:55 10° N 02:13:58 43° ENE 02:18:55 10° SE
SAR-Lupe-4 3.9 02:10:48 10° N 02:14:22 70° WNW 02:17:54 10° SSW
Cosmos 1842 3.7 02:12:34 10° SSE 02:16:16 42° E 02:20:00 10° NNE
BREEZE M DEB (TANK) 2.3 02:14:54 10° WNW 02:17:24 34° SW 02:19:14 10° SSE
CZ-4 R/B 4.1 02:15:57 10° SW 02:18:15 15° W 02:20:34 10° WNW
Cosmos 1674 Rocket 4.0 02:14:41 10° SSE 02:18:52 43° E 02:23:01 10° NNE
Cosmos 1300 Rocket 3.5 02:14:57 10° N 02:19:15 69° E 02:23:32 10° SSE
Cosmos 1371 Rocket 4.0 02:14:21 10° SSW 02:19:30 88° WNW 02:24:42 10° NNE
ERS-2 2.1 02:16:32 10° NNE 02:20:11 88° E 02:23:49 10° SSW
MOS 1-B Rocket 4.4 02:15:27 10° N 02:20:58 64° WNW 02:26:53 10° SSW
Cosmos 1420 Rocket 4.2 02:16:06 10° S 02:21:03 50° ESE 02:26:04 10° NNE
Helios 1A Rocket 3.0 02:17:50 10° S 02:21:54 80° WSW 02:25:58 10° NNW
Genesis I 3.0 02:22:07 10° SSW 02:25:52 76° ESE 02:29:45 10° NNE
Cosmos 1766 3.2 02:24:57 10° N 02:28:48 65° E 02:32:37 10° SSE
Cosmos 1821 Rocket 4.2 02:25:04 10° N 02:31:14 73° W 02:37:17 10° S
USA 186 2.9 02:30:31 10° SSW 02:32:59 35° W 02:35:37 10° NNW
Sich 1 Rocket 3.8 02:29:18 10° NNW 02:33:39 71° W 02:38:01 10° S
NOSS 3-2 (C) 3.4 02:29:04 10° SSW 02:34:27 80° WNW 02:40:30 10° NNE
SJ-6B 3.1 02:31:30 10° S 02:35:36 72° W 02:39:40 10° NNW
Cosmos 1470 3.9 02:36:29 10° NNE 02:39:52 26° ENE 02:41:53 18° ESE
ATLAS 3B R/B 3.9 02:39:16 14° ESE 02:40:52 16° ESE 02:44:31 10° ENE
IRS-1A Rocket 4.4 02:35:04 10° SSE 02:40:55 71° ENE 02:46:43 10° N
Cosmos 1023 Rocket 4.5 02:36:57 10° NNW 02:42:14 77° ENE 02:46:53 13° SSE
SL-16 R/B 2.1 02:42:28 10° SSW 02:48:05 73° ESE 02:53:45 10° NNE
ASTRO E2 3.9 02:45:03 10° SSW 02:48:13 23° SSE 02:49:07 21° SE
CZ-2C R/B 4.4 02:44:30 10° NNE 02:48:54 36° E 02:52:13 16° SSE
Cosmos 2360 Rocket 3.0 02:45:17 12° SSE 02:49:31 29° ESE 02:54:19 10° NE
OBJECT-B 2.5 02:47:38 10° SSW 02:50:30 30° W 02:53:23 10° NNW
Cosmos 1241 Rocket 4.5 02:44:10 10° NNW 02:50:34 89° ENE 02:55:37 16° SSE
Cosmos 2322 Rocket 2.3 02:45:14 10° S 02:50:47 57° ESE 02:56:22 10° NNE
SL-24 DEB 4.3 02:46:23 10° S 02:51:05 83° W 02:55:51 10° N
Cosmos 1315 Rocket 3.8 02:48:03 10° NNE 02:51:45 31° ENE 02:53:31 22° ESE
Aureole 2 Rocket 3.5 02:51:38 10° NW 02:53:39 24° WSW 02:55:18 12° SSW
Delta 128 4.0 02:49:30 10° WSW 02:53:45 44° S 02:56:22 22° ESE
Ariane Rocket 3.0 02:50:47 12° SSE 02:55:32 88° WSW 03:00:40 10° NNW
Cosmos 676 Rocket 4.4 02:53:56 10° N 02:59:07 49° ENE 03:02:11 23° SE
Resurs 1-3 3.7 02:55:17 13° S 02:59:10 75° WSW 03:03:34 10° NNW
Cosmos 1954 Rocket 4.3 02:54:43 10° N 02:59:55 52° ENE 03:03:00 23° SE
Meteor 1-21 4.2 02:54:20 10° S 03:00:02 81° E 03:05:41 10° N
Cosmos 2227 4.4 02:56:20 10° NNW 03:01:52 56° ENE 03:05:12 24° SE
Okean 1 Rocket 3.2 02:57:41 10° N 03:01:58 53° E 03:04:14 25° SSE
Cosmos 1726 2.3 02:59:23 10° N 03:02:54 48° E 03:04:15 31° SE
Cosmos 1378 Rocket 4.1 03:00:40 10° SSW 03:04:54 59° W 03:09:13 10° N
Okean 2 3.7 03:02:36 10° SSW 03:06:39 65° W 03:10:43 10° N
Cosmos 1934 Rocket 4.3 03:04:02 10° NNW 03:10:05 65° W 03:16:12 10° S
BREEZE-M DEB (TANK) 4.5 02:53:03 10° NW 03:10:14 88° SW 03:13:12 27° SE
Cosmos 1758 3.9 03:06:36 10° N 03:10:20 39° E 03:11:21 32° ESE
Cosmos 2237 4.2 03:04:48 10° S 03:10:23 60° ESE 03:15:58 10° NNE
Lacrosse 5 rocket 1.1 03:09:03 10° SSW 03:12:43 50° SE 03:16:16 10° NE
USA 215 3.8 03:07:30 10° ENE 03:13:13 32° SE 03:18:54 10° S
USA 81 4.4 03:08:18 10° N 03:13:24 48° E 03:15:44 29° SE
Cosmos 1140 Rocket 4.2 03:09:44 10° NNW 03:14:48 51° WSW 03:18:53 15° S
Cosmos 1707 2.8 03:13:40 17° SSW 03:16:33 76° W 03:20:27 10° N
Cosmos 1110 Rocket 4.4 03:15:27 29° SE 03:17:19 39° E 03:22:07 10° NNE
Cosmos 292 Rocket 4.5 03:15:34 10° SSW 03:20:18 56° WNW 03:25:04 10° N
CENTAUR R/B 4.4 03:15:46 10° WSW 03:20:48 31° NW 03:26:38 10° NNE
BREEZE-M DEB (TANK) 3.5 03:25:40 10° W 03:28:01 29° SW 03:28:57 26° S
Cosmos 1727 Rocket 4.0 03:24:15 14° S 03:29:46 90° WNW 03:36:05 10° N
SPOT 5 4.1 03:30:03 27° E 03:31:13 29° ENE 03:35:33 10° NNE
Meteor 2-20 Rocket 4.4 03:27:22 17° S 03:32:12 88° E 03:38:20 10° N
Cosmos 1844 Rocket 4.1 03:28:05 10° N 03:32:34 23° ENE 03:34:17 20° E
Resurs 01 Rocket 2.3 03:33:54 25° SSW 03:36:11 50° W 03:40:28 10° NNW
Cosmos 1025 Rocket 3.6 03:37:24 38° E 03:37:24 38° E 03:41:22 10° NNE
Cosmos 1953 3.2 03:34:20 10° NNE 03:37:53 34° ENE 03:37:53 34° ENE
Cosmos 1452 Rocket 4.2 03:34:13 10° SSW 03:39:22 55° WNW 03:44:33 10° N
CARTOSAT-1 3.9 03:39:24 45° E 03:39:53 47° ENE 03:44:01 10° N
IGS 5A 4.3 03:38:23 27° SSW 03:40:15 44° W 03:44:14 10° NNW
Cosmos 1605 Rocket 4.5 03:35:15 10° NNW 03:41:30 59° W 03:46:03 19° SSW
USA 245 3.7 03:40:33 50° SSE 03:41:41 76° ENE 03:46:58 10° N
Terra 3.2 03:41:40 24° ENE 03:42:04 24° ENE 03:45:52 10° NNE
Cosmos 1626 3.1 03:45:05 33° NE 03:45:05 33° NE 03:47:37 10° NNE
Cosmos 2263 Rocket 2.9 03:40:18 10° NNW 03:45:44 48° WSW 03:48:33 27° SSW
Cosmos 2333 4.4 03:45:22 43° SE 03:46:39 52° ESE 03:52:12 10° NNE
Cosmos 1975 Rocket 3.1 03:46:46 41° SSW 03:48:11 73° W 03:52:33 10° N
SPOT 1/Viking Rocket 3.5 03:47:31 42° S 03:49:19 79° WSW 03:54:28 10° NNW
Lacrosse 5 1.9 03:46:47 10° NW 03:51:51 70° NE 03:52:53 54° ESE
Cosmos 1802 Rocket 4.4 03:47:58 10° N 03:53:58 46° E 03:55:19 40° ESE
Cosmos 1850 Rocket 4.0 03:51:02 10° N 03:56:17 63° ENE 03:57:07 54° ESE
Cosmos 1461 4.5 03:53:01 10° N 03:56:19 22° NE 03:56:19 22° NE
Geosat 4.3 03:55:46 47° E 03:56:39 53° ENE 04:01:32 10° NNW
KORONAS-FOTON 4.2 03:56:35 54° WSW 03:57:01 58° W 04:00:46 10° N
Cosmos 2333 Rocket 2.3 03:56:42 50° SE 03:57:13 52° ESE 04:02:47 10° NNE
BREEZE-M DEB (TANK) 4.5 03:32:27 10° SW 03:58:09 68° SE 04:03:30 10° ENE
Spot 2 Rocket 3.4 03:58:37 58° SSE 03:59:38 88° E 04:04:43 10° NNW
Cosmos 1331 Rocket 4.1 04:02:33 36° SSW 04:04:43 76° WNW 04:09:59 10° NNE
ERS-1 Rocket 2.9 04:04:36 61° ESE 04:05:06 65° ENE 04:10:06 10° N
IUS-18 SRM-1 3.6 03:59:20 10° WSW 04:07:55 42° SSW 04:07:55 42° SSW
ATLAS CENTAUR R/B 3.8 04:08:10 10° NNE 04:10:30 14° NE 04:10:56 14° ENE
Cosmos 2219 Rocket 2.2 04:11:14 58° ESE 04:11:16 58° ESE 04:16:50 10° NNE
Cosmos 1459 Rocket 3.8 04:05:17 10° N 04:11:21 82° E 04:12:40 57° SSE
ARIANE 5 R/B 2.7 04:13:46 70° WSW 04:13:52 70° WSW 04:18:19 10° NNW
Cosmos 1674 4.2 04:16:07 29° W 04:16:36 30° W 04:19:54 10° NNW
Cosmos 1844 4.1 04:12:04 10° N 04:17:24 45° ENE 04:17:50 44° E
Meteor 1-24 Rocket 4.3 04:19:34 39° ENE 04:19:34 39° ENE 04:23:50 10° NNE
Cosmos 1302 Rocket 3.9 04:23:10 76° E 04:23:10 76° E 04:28:17 10° NNE
Cosmos 2237 Rocket 4.2 04:29:30 14° ENE 04:29:30 14° ENE 04:30:48 10° NE
Cosmos 1741 Rocket 4.1 04:23:19 10° NNW 04:28:33 66° WSW 04:28:51 64° SW
Meteor 2-11 Rocket 4.4 04:22:40 10° N 04:28:47 81° W 04:29:46 64° SSW
Aureole 1 Rocket 4.2 04:22:26 10° NNW 04:28:49 81° ENE 04:30:26 58° SSE
Cosmos 2061 Rocket 3.9 04:22:24 10° N 04:28:50 70° E 04:29:34 64° SE
ATLAS 3B R/B 2.7 04:26:19 22° SW 04:30:44 72° WNW 04:37:23 10° NNE
Cosmos 2360 Rocket 3.8 04:28:24 10° SW 04:33:21 31° WNW 04:38:20 10° N
Cosmos 1864 Rocket 4.3 04:27:44 10° N 04:33:55 73° E 04:34:21 70° ESE
Cosmos 2123 Rocket 4.0 04:32:40 56° SSW 04:34:04 78° W 04:40:24 10° N
H-2A R/B 4.2 04:32:06 10° N 04:35:12 48° NNW 04:35:12 48° NNW
Cosmos 1544 Rocket 4.1 04:33:18 10° NNW 04:37:03 57° NW 04:37:03 57° NW
Cosmos 1455 Rocket 4.4 04:38:36 10° NNW 04:42:32 32° W 04:42:32 32° W
Cosmos 1340 4.4 04:45:20 31° NW 04:45:20 31° NW 04:47:42 10° N
COSMOS 2428 2.7 04:48:51 81° W 04:48:57 81° WNW 04:54:44 10° NNE
Cosmos 2233 Rocket 4.1 04:45:27 10° N 04:51:23 61° ENE 04:51:23 61° ENE
Cosmos 2322 4.4 04:50:06 39° WSW 04:51:41 50° WNW 04:57:10 10° N
Lacrosse 5 rocket 4.2 04:50:01 10° WNW 04:51:59 14° NW 04:53:57 10° N
NOSS 0 Rocket 4.4 04:57:14 48° ENE 04:57:14 48° ENE 05:02:04 10° NNE
USA 215 3.7 04:49:57 10° NE 04:56:19 58° NW 05:02:42 10° WSW
Cosmos 2278 Rocket 3.8 05:01:15 10° N 05:05:38 23° ENE 05:05:45 22° ENE
ATLAS 2A CENTAUR R/B 4.5 05:00:56 10° WSW 05:04:20 18° SW 05:04:20 18° SW
Cosmos 968 Rocket 4.3 05:09:41 10° N 05:13:30 45° NNE 05:13:30 45° NNE
Cosmos 1844 Rocket 3.6 05:11:16 10° NW 05:15:57 39° W 05:15:57 39° W
Terra 3.5 05:20:33 26° WNW 05:20:33 26° WNW 05:23:42 10° NW
GEOS 3 Rocket 4.5 05:20:24 44° NE 05:20:24 44° NE 05:25:11 10° NNW
Lacrosse 5 4.4 05:31:46 10° W 05:32:05 11° W 05:32:05 11° W
Cosmos 1980 4.3 05:37:59 54° NNE 05:37:59 54° NNE 05:42:20 10° NNE
Cosmos 2333 Rocket 4.4 05:38:37 13° W 05:41:46 19° WNW 05:45:50 10° NNW
ATLAS CENTAUR R/B 3.6 05:45:14 10° NW 05:47:04 24° NW 05:47:04 24° NW
SL-16 R/B 3.5 06:07:45 33° NE 06:07:45 33° NE 06:11:02 10° NNE
Cosmos 2034 Rocket 4.4 06:03:16 10° N 06:08:22 55° NE 06:08:22 55° NE
Cosmos 2237 Rocket 3.1 06:11:17 42° NW 06:11:17 42° NW 06:15:54 10° N
BREEZE-M DEB (TANK) 4.4 06:20:56 48° E 06:20:56 48° E 06:32:52 10° NE
BREEZE M DEB (TANK) 4.3 06:22:37 52° E 06:22:37 52° E 06:37:13 10° ENE
SJ 16-02 3.9 06:23:09 10° NNE 06:24:49 16° NE 06:24:49 16° NE
Tsikada Rocket 4.3 06:28:01 62° NNE 06:28:01 62° NNE 06:33:05 10° N
Cosmos 2278 Rocket 3.6 06:44:31 10° NW 06:47:35 29° WNW 06:47:35 29° WNW
ATLAS CENTAUR R/B 4.4 06:56:56 25° WNW 06:59:21 34° NNW 07:09:48 10° NE
USA 267 3.3 07:09:00 69° WNW 07:09:00 69° WNW 07:14:42 10° NW
Cosmos 1943 4.0 07:23:13 43° ENE 07:23:13 43° ENE 07:27:26 10° NNE
Cosmos 1603 4.3 07:28:43 51° ENE 07:28:43 51° ENE 07:33:14 10° NNE
Cosmos 1634 Rocket 4.4 07:25:09 10° NNW 07:30:28 55° WNW 07:30:28 55° WNW
Cosmos 1943 Rocket 2.6 07:27:15 10° NNW 07:31:43 57° N 07:31:43 57° N
Cosmos 2279 Rocket 4.0 07:26:32 10° N 07:32:19 77° NNE 07:32:19 77° NNE
Resurs 1-4 Rocket 2.7 07:37:56 10° NNE 07:42:25 51° ENE 07:42:25 51° ENE
SL-16 R/B 4.0 07:49:37 20° WNW 07:49:56 20° WNW 07:53:58 10° NNW
X-37B 4.1 07:53:27 11° N 07:53:27 11° N 07:53:57 10° NNE
CZ-2D R/B 2.4 07:47:23 10° NNE 07:51:52 59° ENE 07:51:52 59° ENE
USA 229 DEB 4.2 07:56:00 40° WNW 07:56:47 41° NW 08:03:05 10° NNE
Cosmos 2221 3.9 07:52:43 10° N 07:55:44 36° NE 07:55:44 36° NE
USA 229 4.2 07:56:07 40° WNW 07:56:53 42° NW 08:03:11 10° NNE
ADEOS II 3.2 07:55:32 10° NNE 08:00:17 34° E 08:00:27 34° ESE
Cosmos 2098 Rocket 3.7 08:00:52 81° ENE 08:00:52 81° ENE 08:05:56 10° N
Nadezhda 4 Rocket 3.8 08:01:45 84° W 08:01:45 84° W 08:07:53 10° N
ARGOS Delta rocket 4.2 07:57:30 10° N 08:02:36 77° N 08:02:36 77° N
SJ 16-02 3.7 08:00:56 10° NW 08:01:47 15° NW 08:01:47 15° NW
SeaSat 1 4.1 08:06:14 10° NE 08:10:09 23° ESE 08:10:13 23° ESE
Cosmos 1606 4.5 08:08:22 10° NNE 08:10:56 30° NE 08:10:56 30° NE
Cosmos 2369 Rocket 2.1 08:07:06 10° NNW 08:12:50 81° ENE 08:13:05 78° ESE
SL-16 R/B 2.6 08:11:30 54° SE 08:12:53 72° ENE 08:19:03 10° N
Cosmos 1656 Rocket 4.2 08:13:17 10° N 08:18:52 55° ENE 08:20:53 36° SE
IDEFIX/ARIANE 42P 4.1 08:15:14 10° NE 08:19:35 26° E 08:20:56 23° ESE
Cosmos 2263 4.4 08:14:32 10° NNW 08:20:11 66° ENE 08:21:30 50° SE
ATLAS 5 CENTAUR R/B 2.2 08:29:31 47° NE 08:29:31 47° NE 08:32:33 10° NNE
DELTA 2 R/B (1) 4.0 08:29:13 45° WNW 08:30:34 57° NNW 08:36:03 10° ENE
Meteor 2-15 4.5 08:25:42 10° N 08:31:51 76° E 08:33:32 49° SSE
USA 307 3.4 08:34:52 56° N 08:34:52 56° N 08:38:25 10° NE
Cosmos 1627 Rocket 4.4 08:33:19 59° S 08:34:39 86° E 08:41:01 10° N
Cosmos 1633 4.1 08:37:09 31° N 08:37:09 31° N 08:39:07 10° N
Cosmos 1092 Rocket 3.9 08:38:56 61° SW 08:39:50 70° W 08:45:58 10° N
ADEOS Rocket 3.7 08:35:05 21° SSE 08:40:26 68° ENE 08:47:21 10° N
Landsat 4 4.4 08:38:00 10° NNE 08:40:58 53° NNE 08:40:58 53° NNE
Aureole 3 Rocket 3.2 08:38:20 10° N 08:42:29 87° E 08:42:55 74° SSE
Helios 1B rocket 3.6 08:39:32 10° N 08:42:26 33° NW 08:42:26 33° NW
Meteor 2-3 Rocket 4.0 08:44:04 43° SSE 08:45:44 61° E 08:51:14 10° NNE
USA 308 3.4 08:50:00 48° NW 08:50:00 48° NW 08:54:05 10° NNE
IRS-1D 3.4 08:46:49 10° NNE 08:51:58 87° ESE 08:52:49 63° S
ATLAS 5 CENTAUR R/B 4.3 08:44:46 33° SW 08:52:12 52° S 09:57:24 10° ESE
CBERS-1 4.1 08:50:39 10° NNE 08:55:47 74° ESE 08:57:06 50° S
Cosmos 921 Rocket 4.4 09:01:07 26° WNW 09:01:07 26° WNW 09:04:13 10° NNW
NOSS 2-2 (D) 4.5 09:05:20 27° NW 09:05:20 27° NW 09:07:59 10° N
MSX 4.2 09:01:38 10° NNE 09:07:19 58° ESE 09:10:21 27° S
Lacrosse 4 Rocket 3.2 09:04:28 10° N 09:08:04 30° ENE 09:11:37 10° ESE
USA 305 4.2 09:08:39 28° WNW 09:09:29 30° NW 09:13:16 10° NNE
Centaur D-1AR AC-39 4.2 09:10:01 28° SSW 09:12:04 31° S 09:38:27 10° ESE
Centaur D-1AR AC-39 4.2 09:10:01 28° SSW 09:12:05 31° S 09:38:27 10° ESE
Centaur D-1AR AC-39 4.2 09:10:00 28° SSW 09:12:05 31° S 09:38:27 10° ESE
Cosmos 1937 Rocket 4.1 09:08:21 10° NW 09:13:05 37° W 09:13:05 37° W
Chandra Rocket (1) 4.2 09:13:16 29° SSW 09:15:25 33° S 09:19:51 10° ESE
Cosmos 1933 3.2 09:15:23 10° N 09:19:28 85° W 09:20:30 50° S
Cosmos 2151 3.9 09:21:58 31° WNW 09:21:58 31° WNW 09:25:40 10° NNW
Resurs 1-4 Rocket 3.9 09:19:24 10° NNW 09:22:27 16° WNW 09:23:30 15° WNW
ERBS 2.0 09:29:30 76° S 09:29:41 83° SE 09:32:55 10° NE
X-37B 3.9 09:29:24 10° N 09:30:04 10° N 09:30:44 10° NNE
IRIDIUM 104 4.2 09:24:57 10° N 09:30:08 72° W 09:32:55 28° SSW
Cosmos 2150 Rocket 4.5 09:25:35 10° N 09:30:44 61° ENE 09:35:56 10° SSE
Centaur AC-125 3.6 09:32:23 17° SE 09:32:23 17° SE 09:33:40 10° ESE
CZ-2D R/B 4.1 09:29:53 10° NW 09:31:59 12° WNW 09:33:11 12° WNW
Delta 2 Rocket 3.5 09:38:17 40° SSW 09:39:07 47° SSE 09:42:39 10° E
IRIDIUM 114 4.4 09:34:09 10° N 09:39:16 58° W 09:42:03 26° SSW
ADEOS II 3.4 09:35:35 10° NNW 09:39:44 24° WNW 09:41:23 21° W
CZ-2D R/B 3.9 09:35:44 10° NNE 09:39:50 57° E 09:42:32 20° S
CZ-2C R/B 3.6 09:38:11 10° NNE 09:42:48 39° E 09:47:14 10° SSE
Cosmos 1553 Rocket 4.0 09:36:41 10° NNW 09:42:53 66° W 09:47:56 16° S
Cosmos 1125 Rocket 3.8 09:41:29 10° NNW 09:46:45 70° ENE 09:51:59 10° SSE
S3M 4.0 09:41:11 10° N 09:47:23 88° E 09:53:37 10° S
SeaSat 1 3.3 09:43:10 10° N 09:47:38 36° WNW 09:50:00 23° WSW
Cosmos 1862 3.4 09:45:51 21° S 09:48:25 79° E 09:52:27 10° N
SL-08 R/B 3.7 09:44:43 10° SSE 09:49:16 63° ENE 09:53:54 10° N
ARIANE 5 R/B 2.4 09:45:51 10° N 09:50:50 73° WNW 09:54:12 21° SSW
Cosmos 1328 Rocket 3.5 09:48:44 10° N 09:53:07 86° E 09:57:29 10° S
Meteor 1-28 Rocket 4.4 09:53:31 24° W 09:53:34 24° W 09:56:39 10° NW
SL-16 R/B 4.2 09:56:35 14° W 09:56:54 14° W 09:59:55 10° WNW
Cosmos 2084 Rocket 4.1 09:54:22 18° S 09:56:58 42° ESE 10:00:43 10° NE
IDEFIX/ARIANE 42P 3.6 09:54:33 10° N 09:59:04 30° WNW 10:01:44 19° WSW
GPS 2-04 Rocket1 3.0 09:57:38 15° W 10:00:42 59° N 10:04:24 10° ENE
deb Kosmos-1763 4.1 09:58:36 20° S 10:00:53 71° ESE 10:04:24 10° NNE
CZ-4B R/B 3.8 10:00:01 10° N 10:05:08 55° WNW 10:09:03 17° SW
USA 281 3.3 09:59:07 10° S 10:05:31 57° WSW 10:11:59 10° NNW
CZ-4C R/B 1.8 10:04:44 20° SW 10:07:54 73° WNW 10:13:16 10° NNE
BREEZE-M DEB (TANK) 4.3 10:08:05 11° S 10:09:26 15° SE 10:10:53 10° E
ASC 2 Rocket 4.2 10:14:29 17° SW 10:16:44 24° S 10:20:06 10° SE
Cosmos 1408 Rocket 4.1 10:16:18 15° SSW 10:19:41 43° W 10:23:56 10° N
Cosmos 1833 Rocket 2.8 10:15:10 10° SSW 10:20:47 79° ESE 10:26:27 10° NNE
Cosmos 1515 Rocket 3.5 10:16:31 10° N 10:20:57 85° W 10:25:22 10° S
BREEZE-M DEB (TANK) 3.0 10:17:42 14° WSW 10:21:35 60° NW 10:24:25 10° NE
OAO 3 Rocket 4.2 10:18:14 14° SSW 10:21:44 33° SSE 10:26:03 10° E
ATLAS 2A CENTAUR R/B 3.8 10:19:08 16° WSW 10:21:54 44° S 10:33:26 10° ESE
Tianhe-1 1.2 10:20:38 18° SW 10:22:47 62° SSE 10:25:55 10° ENE
Spot 4 Rocket 4.2 10:18:28 10° N 10:23:31 59° WNW 10:28:32 10° SSW
Cosmos 2266 Rocket 4.5 10:19:01 12° SSW 10:24:13 41° W 10:29:56 10° N
Cosmos 1151 Rocket 4.0 10:21:29 10° NNW 10:25:04 27° W 10:28:25 11° SW
Cosmos 883 Rocket 4.5 10:22:49 10° NNW 10:28:53 66° W 10:34:55 10° S
PAYLOAD A 4.3 10:30:10 10° N 10:35:03 52° WNW 10:40:06 10° SSW
Cosmos 2082 Rocket 3.0 10:32:21 10° S 10:37:45 51° ESE 10:43:09 10° NNE
FENGYUN 3A 3.7 10:34:06 10° N 10:39:32 82° WNW 10:44:58 10° SSW
Cosmos 44 3.5 10:34:50 10° SSW 10:39:59 86° WNW 10:45:25 10° NNE
ATLAS 3B CENTAUR R/B 4.3 10:21:08 10° W 10:40:11 68° SSW 10:49:40 10° ESE
CZ-2C R/B 3.2 10:38:57 10° N 10:42:38 44° WNW 10:46:13 10° SSW
ALOS 2.3 10:40:51 10° N 10:45:30 74° WNW 10:50:09 10° SSW
Lacrosse 4 Rocket 2.9 10:43:53 10° WNW 10:46:25 16° WSW 10:48:57 10° SW
